This is the latest recevied weather packets stored in our database for station/object UA1CAS-13. If no packets are shown the sender has not sent any weather packets the latest 10 day(s).
| Time | Temp. | Humidity | Pressure | Rain* | Wind** | Luminosity | Snow |
|---|---|---|---|---|---|---|---|
| 1777523786 | 5° C | 72% | 1018 hPa | - | - | - | - |
| 1777522885 | 5° C | 72% | 1018 hPa | - | - | - | - |
| 1777521983 | 6.11° C | 70% | 1018 hPa | - | - | - | - |
| 1777521082 | 5.56° C | 74% | 1019 hPa | - | - | - | - |
| 1777520181 | 3.89° C | 76% | 1019 hPa | - | - | - | - |
| 1777519280 | 4.44° C | 75% | 1019 hPa | - | - | - | - |
| 1777518379 | 3.89° C | 79% | 1019 hPa | - | - | - | - |
| 1777517478 | 2.78° C | 83% | 1019 hPa | - | - | - | - |
| 1777516576 | 2.22° C | 85% | 1019 hPa | - | - | - | - |
| 1777515675 | 1.67° C | 85% | 1019 hPa | - | - | - | - |
| 1777514774 | 1.67° C | 86% | 1019 hPa | - | - | - | - |
| 1777513873 | 1.67° C | 86% | 1019 hPa | - | - | - | - |
| 1777512972 | 1.11° C | 85% | 1019 hPa | - | - | - | - |
| 1777512071 | 1.67° C | 84% | 1019 hPa | - | - | - | - |
| 1777511170 | 1.67° C | 83% | 1019 hPa | - | - | - | - |
| 1777510269 | 1.67° C | 83% | 1019 hPa | - | - | - | - |
| 1777509368 | 1.67° C | 82% | 1019 hPa | - | - | - | - |
| 1777508467 | 1.67° C | 82% | 1019 hPa | - | - | - | - |
| 1777507565 | 1.67° C | 81% | 1019 hPa | - | - | - | - |
| 1777506665 | 1.67° C | 81% | 1019 hPa | - | - | - | - |
| 1777505763 | 1.67° C | 81% | 1019 hPa | - | - | - | - |
| 1777504862 | 1.67° C | 81% | 1019 hPa | - | - | - | - |
| 1777503961 | 1.67° C | 81% | 1019 hPa | - | - | - | - |
| 1777503060 | 1.67° C | 80% | 1019 hPa | - | - | - | - |
| 1777502159 | 2.22° C | 79% | 1019 hPa | - | - | - | - |
* Rain since midnight (hover to see other rain measurements)
** Current wind speed in m/s (hover to see current wind gust speed)